Regional Weather Roundup
Issued by NWS

Current Version | Previous Version | Text Only | Print | Product List | Glossary On
Versions: 1 2 3 4 5 6 7 8 9 10 11 12 13 14 15 16 17 18 19 20 21 22 23 24 25 26 27 28 29 30 31 32 33 34 35 36 37 38 39 40 41 42 43 44 45 46 47 48 49 50
000
ASUS44 KFWD 252115
RWRTX
NORTH TEXAS HOURLY WEATHER ROUNDUP
NATIONAL WEATHER SERVICE FORT WORTH TX
300 PM CST SAT FEB 25 2017

NOTE: "FAIR" INDICATES FEW OR NO CLOUDS BELOW 12,000 FEET WITH NO
SIGNIFICANT WEATHER AND/OR OBSTRUCTIONS TO VISIBILITY.

TXZ118-119-252200-
DALLAS/FORT WORTH METROPLEX

CITY           SKY/WX    TMP DP  RH WIND       PRES   REMARKS
DFW AIRPORT    SUNNY     52  19  27 CALM      30.15F
DALLAS LOVE    SUNNY     53  21  28 CALM      30.16F
FTW MEACHAM    SUNNY     53  18  25 N5        30.16F
DAL-EXECUTIVE  SUNNY     53  20  27 CALM      30.15F
FTW-ALLIANCE   SUNNY     51  18  27 VRB3      30.15F
FTW-NAS-JRB    SUNNY     52  19  27 VRB3      30.17F
FTW-SPINKS     SUNNY     54  23  30 CALM      30.17F
ARLINGTON      SUNNY     52  18  26 NE5       30.16F
GRAND PRAIRIE  SUNNY     50  19  29 NE9       30.18F
ADDISON        SUNNY     50  21  32 W3        30.17F
MESQUITE       SUNNY     52  19  28 N5        30.18F
LANCASTER      SUNNY     52  21  30 E3        30.17F
$$

TXZ091>094-102>105-117-120-121-131>134-252200-
NORTH CENTRAL TEXAS

CITY           SKY/WX    TMP DP  RH WIND       PRES   REMARKS
SHRMAN/DENISON SUNNY     49  18  29 CALM      30.17F
GAINESVILLE    SUNNY     48  18  29 CALM      30.17F
BOWIE          SUNNY     51  17  26 CALM      30.14F
BRIDGEPORT     SUNNY     51  19  29 CALM      30.16F
DECATUR        SUNNY     50  14  23 CALM      30.14F
DENTON         SUNNY     50  18  28 E6        30.16F
MCKINNEY       SUNNY     51  18  27 CALM      30.16F
BONHAM         SUNNY     48  21  34 NE3       30.17F
GREENVILLE     SUNNY     52  19  28 CALM      30.16F
ROCKWALL       SUNNY     52  22  31 CALM      30.16F
TERRELL        SUNNY     53  21  28 E6        30.16F
WAXAHACHIE     SUNNY     53  26  35 E3        30.17F
CLEBURNE       SUNNY     52  23  32 CALM      30.16F
GRANBURY       SUNNY     54  24  31 CALM      30.15F
$$

TXZ083>090-098>101-113>116-127>130-139>142-154-155-252200-
WESTERN NORTH TEXAS

CITY           SKY/WX    TMP DP  RH WIND       PRES   REMARKS
WICHITA FALLS  SUNNY     47  20  34 SE7       30.13F
WF-KICKAPOO    SUNNY     47  18  31 E3        30.15F
VERNON         SUNNY     48   8  19 SE6       30.13F
ABILENE        SUNNY     51  23  33 VRB5G17   30.09F
ABILENE-DYESS  SUNNY     53  24  32 SE10      30.06F
GRAHAM         SUNNY     54  21  28 SE3       30.12F
BRECKENRIDGE   SUNNY     54  19  25 CALM      30.11F
CISCO          SUNNY     52  21  30 VRB7      30.11F
MINERAL WELLS  SUNNY     53  17  24 VRB3      30.12F
STEPHENVILLE   SUNNY     54  19  26 CALM      30.15F
COMANCHE       SUNNY     54  24  31 CALM      30.12F
BROWNWOOD      SUNNY     55  23  28 SE5       30.10F
COLEMAN        SUNNY     55  23  28 E7        30.09F
$$

TXZ143>147-156>162-174-175-252200-
CENTRAL TEXAS

CITY           SKY/WX    TMP DP  RH WIND       PRES   REMARKS
WACO           SUNNY     56  28  34 NE9       30.15F
WACO-TSTC      SUNNY     55  27  33 N10       30.15F
WACO-MCGREGOR  SUNNY     54  30  40 NE10      30.14F
HILLSBORO      SUNNY     54  25  32 CALM      30.16F
CORSICANA      SUNNY     54  28  36 N7        30.17F
MEXIA          SUNNY     54  26  33 NW6       30.15F
HEARNE         SUNNY     60  27  29 N6        30.14F
CAMERON        SUNNY     57  31  36 NE10      30.14F
TEMPLE         SUNNY     56  27  32 NE9       30.14F
KILLEEN        SUNNY     56  26  30 E5        30.11F
KILLEEN-SKYLRK SUNNY     57  27  31 E10       30.13F
FORT HOOD      SUNNY     56  24  28 NE6       30.09F
GATESVILLE     SUNNY     55  27  33 NE5       30.14F
HAMILTON       SUNNY     56  23  28 NE3       30.13F
LAMPASAS       SUNNY     56  27  32 SE5       30.10F
$$

TXZ095>097-106>112-122>126-135>138-148>153-164>167-252200-
EAST TEXAS

CITY           SKY/WX    TMP DP  RH WIND       PRES   REMARKS
PARIS          SUNNY     50  19  29 W6        30.17F
SULPHUR SPRNGS SUNNY     50  24  35 CALM      30.19F
MOUNT PLEASANT SUNNY     53  22  29 NW7       30.18F
GILMER         SUNNY     53  24  33 N6        30.16F
MINEOLA        SUNNY     54  23  30 N6        30.16F
TYLER          SUNNY     56  22  26 CALM      30.14F
LONGVIEW       SUNNY     56  22  26 N5        30.14F
MARSHALL       SUNNY     55  19  24 NW6       30.17F
PALESTINE      SUNNY     57  27  31 SW3       30.17F
JACKSONVILLE   SUNNY     56  24  29 CALM      30.16F
HENDERSON      SUNNY     56  23  27 NE6       30.16F
CENTER         CLEAR     62  27  26 NW3       30.15F
NACOGDOCHES    SUNNY     61  25  25 E7        30.13S
LUFKIN         SUNNY     62  25  24 NE6       30.13F
$$

SUPPLEMENTAL OBSERVATIONS (CENTRAL)

CITY           SKY/WX    TMP DP  RH WIND       PRES   REMARKS
DENISON DAM      N/A     45  21  39 NW5         N/A
CADDO GRASSLND   N/A     52  19  28 E5          N/A
PAT MAYSE LAKE   N/A     50  14  23 SW3         N/A
GREENVILLE       N/A     52  23  32 NW2G10      N/A
CEDAR HILL       N/A     54  23  30 N6          N/A
ATHENS           N/A     57  25  28 S2          N/A
MCGREGOR         N/A     55  30  38 NE8         N/A
TEMPLE           N/A     57  28  33 NE10G18     N/A
$$

SUPPLEMENTAL OBSERVATIONS (WEST)

CITY           SKY/WX    TMP DP  RH WIND       PRES   REMARKS
MILLERS CREEK    N/A     52  23  32 S6          N/A
POSSUM KINGDOM   N/A     54  23  30 E5          N/A
LBJ GRASSLAND    N/A     54  19  26 E5          N/A
GRANBURY         N/A     54  23  30 SE5         N/A
HAMBY            N/A     55  25  30 SE6         N/A
IVIE RESERVOIR   N/A     57  25  28 SE10        N/A
COLORADO BEND    N/A     59  25  27 S3G17       N/A
$$

SUPPLEMENTAL OBSERVATIONS (EAST)

CITY           SKY/WX    TMP DP  RH WIND       PRES   REMARKS
CLARKSVILLE      N/A     55  23  28 W2          N/A
TEXARKANA        N/A     55  21  26 NW2         N/A
LINDEN           N/A     57  19  23 NE3         N/A
CADDO LAKE       N/A    N/A N/A N/A NW5         N/A
GILMER           N/A     55  25  30 N6          N/A
HENDERSON        N/A     57  23  26 N7          N/A
N SABINE NF      N/A     63  27  25 MISG        N/A
S SABINE NF      N/A     61  28  29 W3          N/A
$$

SUPPLEMENTAL OBSERVATIONS ARE A COLLECTION OF AUTOMATED INSTRUMENTS
THAT ARE MAINTAINED BY A VARIETY OF FEDERAL AND STATE AGENCIES.
CERTAIN ELEMENTS...SUCH AS HUMIDITY VALUES AND SUSTAINED WIND
SPEEDS...MAY BE APPROXIMATED.





USA.gov is the U.S. government's official web portal to all federal, state and local government web resources and services.